[[{"header":{"parameterUnit":"m.s-1","parameterCategory":1,"la1":30.2991,"la2":30.254,"lo1":-89.0895,"lo2":-89.0444,"dy":0.0017,"dx":0.0017,"nx":28,"ny":28,"refTime":"2025-12-06T09:00:00:Z","depth":0,"parameterNumber":2,"parameterNumberName":"U-component_of_WINDS"},"data":[0,0,0,0,0,0,0,0,0,0,0,0,0,0,0,0,0,0,0,0,0,0,0,0,0,0,0,0,0,0,0,0,0,0,0,0,0,0,0,0,0,0,0,0,0,0,0,0,0,0,0,0,0,0,0,0,0,0,-1.1228,-1.1229,0,-1.1286,-1.1286,-1.1287,-1.1272,-1.127,-1.1269,-1.1268,-1.1328,-1.1331,-1.1334,0,0,0,0,0,0,0,0,0,0,0,0,0,-1.1106,-1.1108,-1.1228,-1.1229,-1.123,-1.1286,-1.1286,-1.1287,-1.1272,-1.127,-1.1269,-1.1268,-1.1328,-1.1331,-1.1334,0,0,0,0,0,0,0,0,0,0,0,0,0,-1.1161,-1.1109,-1.1228,-1.1229,-1.1229,-1.1285,-1.1286,-1.1287,-1.1272,-1.127,-1.1269,-1.1267,-1.1327,-1.133,-1.1334,-1.1394,0,0,-1.1347,-1.1348,0,0,0,0,0,0,0,0,-1.1157,-1.1165,-1.1228,-1.1229,-1.123,-1.127,-1.1265,-1.1323,-1.1273,-1.1256,-1.1268,-1.1266,-1.131,-1.1316,-1.133,-1.1397,-1.1399,-1.1347,-1.1349,-1.1351,-1.1352,0,0,0,0,0,0,0,-1.1154,-1.1163,-1.1251,-1.1229,-1.123,-1.1226,-1.1232,-1.1276,-1.1292,-1.1257,-1.1256,-1.1263,-1.1311,-1.1326,-1.1332,-1.14,-1.1347,-1.135,-1.1353,-1.1354,-1.1517,-1.1519,0,0,0,0,0,0,-1.1149,-1.1159,-1.1249,-1.1253,-1.1188,-1.123,-1.1236,-1.1259,-1.1292,-1.1295,-1.1265,-1.1262,-1.132,-1.1327,-1.1334,-1.1405,-1.1351,-1.1355,-1.1357,-1.1515,-1.1517,-1.152,0,0,0,0,0,0,-1.1147,-1.1157,-1.1247,-1.1206,-1.1217,-1.1234,-1.1259,-1.1261,-1.1276,-1.1297,-1.13,-1.1278,-1.1319,-1.1328,-1.1379,-1.1407,-1.1357,-1.136,-1.1513,-1.1516,-1.1519,-1.1548,0,0,0,0,0,0,-1.1143,-1.1156,-1.1179,-1.1206,-1.1219,-1.1291,-1.1261,-1.1263,-1.1283,-1.1281,-1.131,-1.1314,-1.1319,-1.1373,-1.1383,-1.1412,-1.1363,-1.151,-1.1514,-1.1518,-1.1545,-1.1552,-1.1558,0,0,0,0,0,-1.1139,-1.1186,-1.118,-1.1191,-1.1248,-1.1293,-1.13,-1.1304,-1.1286,-1.1309,-1.1322,-1.1313,-1.1402,-1.1378,-1.1389,-1.142,-1.1509,-1.1513,-1.1517,-1.1542,-1.1551,-1.1558,0,0,0,0,0,0,-1.1162,-1.119,-1.1184,-1.1241,-1.1265,-1.129,-1.1319,-1.1313,-1.1343,-1.1339,-1.1344,-1.135,-1.1402,-1.1416,-1.1389,-1.1478,-1.1453,-1.1459,-1.1468,-1.1476,-1.1482,-1.1478,-1.1367,0,0,0,0,0,-1.1174,-1.1208,-1.123,-1.1278,-1.129,-1.1303,-1.1322,-1.1323,-1.1348,-1.1358,-1.1375,-1.14,-1.1433,-1.1455,-1.1487,-1.1546,-1.1553,-1.1573,-1.1579,-1.1584,-1.159,-1.1622,-1.1632,-1.1534,-1.1534,-1.1534,0,0,-1.1199,-1.1218,-1.1239,-1.1283,-1.1302,-1.1337,-1.1311,-1.1349,-1.1375,-1.1364,-1.1413,-1.1426,-1.1454,-1.1509,-1.1534,-1.1522,-1.1619,-1.159,-1.1594,-1.1597,-1.1628,-1.1637,-1.1645,-1.1537,-1.1536,-1.1536,0,0,-1.1262,-1.128,-1.1322,-1.134,-1.1368,-1.1376,-1.1386,-1.1412,-1.142,-1.1469,-1.1461,-1.1492,-1.1549,-1.1569,-1.1587,-1.1656,-1.1649,-1.1666,-1.17,-1.1731,-1.1739,-1.1746,-1.1771,-1.178,-1.1672,-1.1672,-1.1672,0,-1.129,-1.1342,-1.1344,-1.1383,-1.1403,-1.1393,-1.1435,-1.1453,-1.149,-1.1504,-1.149,-1.1561,-1.1579,-1.1638,-1.1655,-1.167,-1.1681,-1.1663,-1.1738,-1.1745,-1.1751,-1.1775,-1.1784,-1.1674,-1.1674,-1.1674,-1.1673,0,-1.1375,-1.1411,-1.1441,-1.1476,-1.1499,-1.154,-1.1548,-1.1571,-1.157,-1.1579,-1.1628,-1.1649,-1.1685,-1.1699,-1.1698,-1.1758,-1.175,-1.1736,-1.1711,-1.1762,-1.1785,-1.1794,-1.1677,-1.1676,-1.1676,-1.1675,0,0,-1.1456,-1.1491,-1.1502,-1.1517,-1.1546,-1.1575,-1.1614,-1.1648,-1.1668,-1.1693,-1.1727,-1.1775,-1.1762,-1.1783,-1.1784,-1.1811,-1.1864,-1.1794,-1.1795,-1.1807,-1.1931,-1.1941,-1.1952,-1.1859,-1.1861,-1.1862,-1.1929,0,-1.1522,-1.1591,-1.1594,-1.1658,-1.1691,-1.1681,-1.1716,-1.1737,-1.1747,-1.1776,-1.1786,-1.1821,-1.1802,-1.1813,-1.184,-1.1852,-1.1889,-1.1847,-1.1891,-1.1892,-1.1885,-1.1964,-1.1975,-1.2037,-1.1938,-1.1939,-1.194,0,-1.1609,-1.1636,-1.1703,-1.1726,-1.174,-1.1771,-1.1802,-1.183,-1.1854,-1.1859,-1.1881,-1.1878,-1.1918,-1.189,-1.1946,-1.1917,-1.1935,-1.1944,-1.1946,-1.1951,-1.192,-1.1971,-1.2057,-1.2066,-1.1954,-1.1953,-1.1952,0,-1.1661,-1.1715,-1.1761,-1.1775,-1.1803,-1.1825,-1.1838,-1.186,-1.1881,-1.1908,-1.1921,-1.1952,-1.197,-1.1994,-1.2,-1.1979,-1.2056,-1.2028,-1.2061,-1.2061,-1.2078,-1.2077,-1.2169,-1.2089,-1.2089,-1.2088,-1.2088,0,-1.1735,-1.1777,-1.1785,-1.1814,-1.186,-1.1862,-1.1907,-1.1919,-1.1938,-1.1969,-1.1962,-1.1991,-1.1997,-1.2027,-1.2031,-1.2077,-1.2085,-1.209,-1.209,-1.2091,-1.209,-1.2103,-1.2099,-1.2091,-1.209,-1.209,-1.2089,0,-1.1803,-1.181,-1.186,-1.1883,-1.1889,-1.1922,-1.1941,-1.1969,-1.1976,-1.2015,-1.2025,-1.2037,-1.2072,-1.208,-1.2122,-1.2124,-1.2178,-1.2175,-1.217,-1.217,-1.2202,-1.2199,-1.2306,-1.232,-1.223,-1.2231,-1.2232,0,-1.185,-1.1881,-1.1906,-1.1926,-1.194,-1.1972,-1.1992,-1.1995,-1.2016,-1.2045,-1.2069,-1.2103,-1.2131,-1.2187,-1.22,-1.2232,-1.2229,-1.2264,-1.2234,-1.2233,-1.223,-1.2228,-1.2232,-1.227,-1.2271,-1.2272,-1.2273,0,-1.1933,-1.1934,-1.1963,-1.1994,-1.2018,-1.2042,-1.2065,-1.2081,-1.2087,-1.2111,-1.2147,-1.2168,-1.221,-1.2244,-1.2275,-1.2289,-1.2282,-1.2282,-1.2291,-1.2292,-1.2288,-1.2291,-1.2187,-1.228,-1.2279,-1.2279,-1.2278,-1.2278,-1.1992,-1.2019,-1.204,-1.2073,-1.209,-1.2111,-1.2138,-1.2149,-1.2178,-1.2212,-1.2212,-1.225,-1.2273,-1.2314,-1.2329,-1.2359,-1.2348,-1.2362,-1.2365,-1.2369,-1.2372,-1.2283,-1.2365,-1.2365,-1.2365,-1.2364,-1.2364,0,-1.2074,-1.2087,-1.2117,-1.2149,-1.2174,-1.2164,-1.2189,-1.2211,-1.2245,-1.2266,-1.2292,-1.2333,-1.2365,-1.238,-1.2412,-1.2433,-1.2431,-1.2442,-1.2441,-1.2444,-1.238,-1.2368,-1.2443,-1.2443,-1.2443,-1.2443,-1.2443,-1.2443,-1.212,-1.2166,-1.217,-1.2223,-1.2236,-1.2273,-1.2288,-1.2308,-1.2324,-1.2369,-1.2396,-1.2405,-1.2424,-1.2457,-1.2486,-1.2489,-1.2502,-1.2514,-1.2516,-1.2456,-1.2448,-1.2441,-1.243,-1.2516,-1.2517,-1.2578,-1.2578,-1.2579]},{"header":{"parameterUnit":"m.s-1","parameterCategory":1,"la1":30.2991,"la2":30.254,"lo1":-89.0895,"lo2":-89.0444,"dy":0.0017,"dx":0.0017,"nx":28,"ny":28,"refTime":"2025-12-06T09:00:00:Z","depth":0,"parameterNumber":3,"parameterNumberName":"V-component_of_WINDS"},"data":[0,0,0,0,0,0,0,0,0,0,0,0,0,0,0,0,0,0,0,0,0,0,0,0,0,0,0,0,0,0,0,0,0,0,0,0,0,0,0,0,0,0,0,0,0,0,0,0,0,0,0,0,0,0,0,0,0,0,-3.4071,-3.4072,0,-3.4149,-3.415,-3.415,-3.4126,-3.4124,-3.4122,-3.4121,-3.4197,-3.42,-3.4204,0,0,0,0,0,0,0,0,0,0,0,0,0,-3.3898,-3.3901,-3.4071,-3.4072,-3.4073,-3.4149,-3.415,-3.4151,-3.4126,-3.4124,-3.4122,-3.412,-3.4196,-3.42,-3.4204,0,0,0,0,0,0,0,0,0,0,0,0,0,-3.3974,-3.3902,-3.4071,-3.407,-3.4071,-3.4148,-3.415,-3.4151,-3.4126,-3.4124,-3.4121,-3.4119,-3.4194,-3.42,-3.4205,-3.4287,0,0,-3.4221,-3.4223,0,0,0,0,0,0,0,0,-3.3969,-3.398,-3.4069,-3.407,-3.4071,-3.4125,-3.4116,-3.4196,-3.4127,-3.4105,-3.4121,-3.4118,-3.4175,-3.4182,-3.4201,-3.4291,-3.4294,-3.4222,-3.4225,-3.4227,-3.4229,0,0,0,0,0,0,0,-3.3964,-3.3977,-3.4102,-3.407,-3.4072,-3.4064,-3.4072,-3.4131,-3.4153,-3.4107,-3.4105,-3.4115,-3.4175,-3.4196,-3.4203,-3.4295,-3.4221,-3.4226,-3.4229,-3.4232,-3.4455,-3.4458,0,0,0,0,0,0,-3.3959,-3.3972,-3.4099,-3.4104,-3.4013,-3.4069,-3.4078,-3.411,-3.4152,-3.4156,-3.4117,-3.4114,-3.4188,-3.4197,-3.4206,-3.4305,-3.4227,-3.4232,-3.4235,-3.4452,-3.4456,-3.4459,0,0,0,0,0,0,-3.3955,-3.397,-3.4096,-3.4038,-3.4053,-3.4075,-3.4111,-3.4113,-3.4135,-3.416,-3.4163,-3.4135,-3.4187,-3.4198,-3.4267,-3.4307,-3.4234,-3.4239,-3.4449,-3.4453,-3.4457,-3.4503,0,0,0,0,0,0,-3.395,-3.3969,-3.4002,-3.4039,-3.4056,-3.4158,-3.4113,-3.4116,-3.4144,-3.414,-3.4178,-3.4182,-3.4186,-3.4259,-3.4273,-3.4313,-3.4243,-3.4446,-3.4451,-3.4456,-3.4498,-3.4509,-3.4517,0,0,0,0,0,-3.3944,-3.4011,-3.4003,-3.4019,-3.4098,-3.416,-3.417,-3.4174,-3.4148,-3.418,-3.4196,-3.418,-3.43,-3.4267,-3.4281,-3.4324,-3.4443,-3.445,-3.4456,-3.4494,-3.4507,-3.4517,0,0,0,0,0,0,-3.3977,-3.4016,-3.4008,-3.4089,-3.4121,-3.4156,-3.4197,-3.4187,-3.4227,-3.4222,-3.4224,-3.4233,-3.4304,-3.4321,-3.4282,-3.4405,-3.4368,-3.4377,-3.4392,-3.4404,-3.4413,-3.4408,-3.4248,0,0,0,0,0,-3.3994,-3.4042,-3.4073,-3.4141,-3.4158,-3.4175,-3.4202,-3.4203,-3.4236,-3.4249,-3.427,-3.4302,-3.4347,-3.4376,-3.4419,-3.4501,-3.4508,-3.4537,-3.4546,-3.4554,-3.4562,-3.4606,-3.4619,-3.4479,-3.4479,-3.4479,0,0,-3.4028,-3.4056,-3.4086,-3.4149,-3.4174,-3.4223,-3.4186,-3.424,-3.4276,-3.4257,-3.4324,-3.434,-3.4376,-3.4452,-3.4486,-3.4468,-3.4602,-3.4562,-3.4568,-3.4572,-3.4614,-3.4627,-3.4639,-3.4483,-3.4482,-3.4482,0,0,-3.4117,-3.4143,-3.4202,-3.4229,-3.4268,-3.4278,-3.4293,-3.4329,-3.4339,-3.4407,-3.4393,-3.4435,-3.4513,-3.4539,-3.4562,-3.466,-3.4647,-3.4674,-3.4723,-3.4766,-3.4777,-3.4787,-3.4821,-3.4834,-3.4682,-3.4682,-3.4682,0,-3.4155,-3.423,-3.4234,-3.4289,-3.4317,-3.4303,-3.4362,-3.4387,-3.4438,-3.4457,-3.4436,-3.4532,-3.4555,-3.4637,-3.4661,-3.468,-3.4696,-3.467,-3.4775,-3.4785,-3.4794,-3.4827,-3.484,-3.4685,-3.4684,-3.4684,-3.4684,0,-3.4274,-3.4326,-3.4369,-3.442,-3.4452,-3.4509,-3.4521,-3.4553,-3.4551,-3.4563,-3.4631,-3.4659,-3.4706,-3.4726,-3.4723,-3.4807,-3.4794,-3.4774,-3.4736,-3.481,-3.4842,-3.4854,-3.4689,-3.4688,-3.4687,-3.4686,0,0,-3.4385,-3.4438,-3.4454,-3.4477,-3.4519,-3.4558,-3.4614,-3.4662,-3.4689,-3.4724,-3.4771,-3.4836,-3.4818,-3.4845,-3.4845,-3.4883,-3.4958,-3.4858,-3.4859,-3.4875,-3.5051,-3.5066,-3.5081,-3.495,-3.4952,-3.4954,-3.5048,0,-3.4477,-3.4577,-3.4583,-3.4673,-3.4721,-3.4708,-3.4756,-3.4787,-3.48,-3.4841,-3.4854,-3.4901,-3.4873,-3.4889,-3.4926,-3.4941,-3.4993,-3.4935,-3.4992,-3.4994,-3.4984,-3.5097,-3.5113,-3.52,-3.506,-3.5062,-3.5064,0,-3.4598,-3.4639,-3.4734,-3.4769,-3.4789,-3.4833,-3.4877,-3.4917,-3.4951,-3.4957,-3.4987,-3.4982,-3.5038,-3.4998,-3.5075,-3.5035,-3.5058,-3.5069,-3.5073,-3.5078,-3.5034,-3.5105,-3.5228,-3.5241,-3.5083,-3.5081,-3.508,0,-3.467,-3.4748,-3.4815,-3.4834,-3.4877,-3.4908,-3.4927,-3.4959,-3.4987,-3.5025,-3.5043,-3.5087,-3.5111,-3.5144,-3.5151,-3.5121,-3.5227,-3.5188,-3.5233,-3.5233,-3.5256,-3.5255,-3.5385,-3.5272,-3.5272,-3.5271,-3.5271,0,-3.4772,-3.4831,-3.4848,-3.4889,-3.4954,-3.4959,-3.5023,-3.5039,-3.5067,-3.5111,-3.5102,-3.5142,-3.5148,-3.519,-3.5195,-3.5257,-3.5268,-3.5274,-3.5275,-3.5275,-3.5274,-3.5291,-3.5285,-3.5275,-3.5274,-3.5273,-3.5273,0,-3.4863,-3.4877,-3.4949,-3.4984,-3.4994,-3.504,-3.507,-3.5108,-3.512,-3.5175,-3.5188,-3.5206,-3.5255,-3.5265,-3.5321,-3.5325,-3.5399,-3.5394,-3.5388,-3.5388,-3.5433,-3.5428,-3.5578,-3.5597,-3.5471,-3.5473,-3.5474,0,-3.4928,-3.4973,-3.5013,-3.5042,-3.5063,-3.5109,-3.5139,-3.5145,-3.5175,-3.5217,-3.5251,-3.5298,-3.5337,-3.5415,-3.5432,-3.5476,-3.5471,-3.552,-3.5477,-3.5476,-3.5472,-3.5469,-3.5473,-3.5529,-3.553,-3.5531,-3.5532,0,-3.504,-3.5045,-3.5088,-3.5134,-3.5169,-3.5205,-3.5239,-3.5263,-3.5274,-3.5308,-3.5358,-3.5388,-3.5447,-3.5494,-3.5538,-3.5556,-3.5546,-3.5545,-3.5558,-3.5559,-3.5554,-3.5557,-3.5411,-3.5542,-3.5541,-3.554,-3.554,-3.5539,-3.512,-3.5159,-3.5194,-3.5242,-3.5269,-3.5301,-3.5339,-3.5356,-3.5399,-3.5448,-3.5448,-3.5503,-3.5535,-3.5592,-3.5613,-3.5655,-3.5639,-3.5658,-3.5662,-3.5667,-3.5671,-3.5547,-3.5663,-3.5662,-3.5662,-3.5662,-3.5662,0,-3.5232,-3.5254,-3.5298,-3.5347,-3.5385,-3.5373,-3.541,-3.5442,-3.5491,-3.5522,-3.556,-3.5617,-3.5663,-3.5684,-3.5729,-3.5759,-3.5755,-3.577,-3.5768,-3.5772,-3.5683,-3.5667,-3.5772,-3.5772,-3.5772,-3.5772,-3.5772,-3.5772,-3.5295,-3.5361,-3.537,-3.5449,-3.5469,-3.5524,-3.5546,-3.5575,-3.56,-3.5665,-3.5704,-3.5717,-3.5744,-3.5791,-3.5832,-3.5837,-3.5854,-3.5871,-3.5874,-3.579,-3.5778,-3.5768,-3.5753,-3.5875,-3.5875,-3.596,-3.596,-3.5961]}]]